Location: Kaarina
(60.4167°N, 22.4167°E)
Time: 21:19:14
(UTC+03:00)

Geosat - Pass Details

Date: 24 August 2019
Orbit: 763 x 766 km, 108.0° (Epoch: 14 September)

Event Time Altitude Azimuth Distance (km) Brightness Sun altitude
Exits shadow 21:39:28 - 137° (SE) 2,717 6.2 -5.1°
Reaches altitude 10° 21:40:29 10° 137° (SE) 2,303 5.9 -5.2°
Maximum altitude 21:45:31 87° 52° (NE) 776 4.1 -5.7°
Drops below altitude 10° 21:50:35 10° 321° (NW) 2,317 8.0 -6.2°
Sets 21:52:52 0° 321° (NW) 3,247 9.1 -6.4°
